Home   Weather   Murau   Past weeks

Flag for Austria Past Weather in Murau, Styria, Austria — Yesterday and Last 2 Weeks

Now
63 °F

Scattered clouds.


Feels Like: 63 °F
Forecast: 45 / 56 °F
Wind: 14 mph from South

Location: Zeltweg

Current Time: Apr 25, 2017 at 4:51:50 pm

Latest Report: Apr 25, 2017 at 4:20 pm


Visibility: 19 mi

Pressure: 29.74 "Hg (26.91 "Hg at 848m altitude)

Humidity: 39%

Dew Point: 37 °F

Location of MurauLocation

Past Weather in Murau — Graph

°F

Murau Temperature Yesterday

Maximum temperature yesterday: 61 °F (at 3:20 pm)
Minimum temperature yesterday: 25 °F (at 4:50 am)
Average temperature yesterday: 47 °F

High & Low Weather Summary for the Past Weeks

 TemperatureHumidityPressure
High73 °F (Apr 10, 3:20 pm)100% (Apr 24, 7:20 am)30.39 "Hg (Apr 24, 7:20 am)
Low23 °F (Apr 21, 4:50 am)23% (Apr 10, 3:50 pm)29.77 "Hg (Apr 25, 1:20 pm)
Average47 °F55%30.03 "Hg
* Reported Apr 10 3:20 pm — Apr 25 3:20 pm, Murau, Weather by CustomWeather, © 2017

Note: Actual official high and low records may vary slightly from our data, if they occured in-between our weather recording intervals... More about our weather records

Advertising

Murau Weather History for the Previous 24 Hours

Scroll right to see more
 ConditionsComfort  
Time TempWeatherWind HumidityBarometerVisibility
3:20 pm
Tue, Apr 25
63 °FScattered clouds.15 mph39%29.77 "Hg19 mi
2:50 pm63 °FScattered clouds.15 mph39%29.77 "Hg19 mi
2:20 pm64 °FScattered clouds.15 mph34%29.77 "Hg19 mi
1:50 pm63 °FScattered clouds.12 mph37%29.77 "Hg19 mi
1:20 pm64 °FScattered clouds.10 mph34%29.77 "Hg19 mi
12:50 pm61 °FScattered clouds.5 mph39%29.80 "Hg19 mi
12:20 pm63 °FScattered clouds.9 mph37%29.80 "Hg19 mi
11:50 am63 °FScattered clouds.6 mph39%29.80 "Hg19 mi
11:20 am61 °FScattered clouds.15 mph39%29.83 "Hg19 mi
10:50 am59 °FScattered clouds.7 mph45%29.83 "Hg19 mi
10:20 am57 °FScattered clouds.10 mph48%29.83 "Hg19 mi
9:50 am57 °FPassing clouds.8 mph48%29.83 "Hg19 mi
9:20 am55 °FPassing clouds.10 mph51%29.86 "Hg19 mi
8:50 am54 °FPassing clouds.7 mph58%29.86 "Hg19 mi
8:20 am48 °FPassing clouds.1 mph66%29.86 "Hg19 mi
7:50 am46 °FPassing clouds.8 mph66%29.86 "Hg19 mi
7:20 am43 °FScattered clouds.13 mph76%29.86 "Hg19 mi
6:50 am41 °FScattered clouds.6 mph76%29.86 "Hg19 mi
5:50 am41 °FPassing clouds.5 mph76%29.86 "Hg19 mi
4:50 am43 °FPassing clouds.10 mph76%29.86 "Hg19 mi
1:50 am41 °FPassing clouds.10 mph81%29.92 "Hg19 mi
10:50 pm
Mon, Apr 24
48 °FPassing clouds.10 mph62%29.92 "Hg25 mi
8:50 pm54 °FPassing clouds.9 mph51%29.92 "Hg25 mi
7:50 pm55 °FScattered clouds.10 mph47%29.92 "Hg25 mi
6:50 pm59 °FPartly sunny.12 mph39%29.92 "Hg25 mi
5:50 pm59 °FPartly sunny.13 mph36%29.95 "Hg25 mi
4:50 pm59 °FPartly sunny.13 mph39%29.92 "Hg25 mi
4:20 pm59 °FScattered clouds.10 mph36%29.95 "Hg25 mi
Weather by CustomWeather, © 2017

See weather overviewHow to use our weather pages